Wind_Speed
10 10 10 10 10 11 11 10 10 10 10 10 10 11 11 11 11 11 11 11 12 12 12 12 12 12 13 13 13 13 13 12 12 12 11 13 14 13 13 14 13 13 12 13 13 13 13 11 11 11 11 11 11 12 13 14 14 15 16 18 18 16 14 12 12 14 16 16 17 17 18 21 20 20 22 24 24 24 25 23 22 21 21 21 19 18 18 18
12 12 12 12 12 12 12 12 12 12 12 12 12 12 13 13 13 13 13 13 13 13 13 13 14 14 14 14 15 15 15 14 13 13 13 14 15 16 16 16 16 15 15 15 15 16 15 14 14 14 13 13 13 13 14 15 15 16 18 21 19 15 14 13 14 16 17 19 20 19 20 21 20 20 24 25 24 24 25 22 22 22 19 19 19 19 20 20
13 13 13 14 14 13 14 14 14 14 14 14 14 14 15 15 15 15 15 14 14 14 14 15 15 15 15 16 16 16 16 15 14 14 14 15 15 16 17 18 18 17 17 17 17 18 17 17 17 16 15 15 15 15 16 16 17 18 20 22 19 15 16 15 15 17 18 21 22 21 21 21 19 21 25 25 25 22 20 19 20 20 16 16 20 21 22 22
15 15 15 15 15 15 15 15 15 15 15 16 16 16 17 17 17 17 17 17 17 16 16 16 16 16 16 17 17 17 18 16 15 16 16 15 15 16 17 18 18 18 19 19 19 20 19 19 19 19 18 17 17 17 17 17 19 22 23 22 19 19 21 16 15 19 19 21 23 23 22 21 19 22 24 24 26 17 11 15 18 19 17 18 21 23 24 24
16 16 16 17 16 16 16 16 17 17 17 17 17 18 18 19 19 19 19 19 19 18 18 18 18 18 18 18 18 19 19 16 14 15 14 14 14 14 15 15 16 16 17 19 20 21 21 22 21 21 21 20 19 20 19 17 20 25 25 23 21 22 23 18 15 19 19 21 23 22 23 23 21 22 23 25 27 15 10 18 20 20 20 20 22 24 25 25
18 18 18 18 18 18 18 18 18 18 18 18 19 19 19 20 20 20 21 20 21 20 20 20 20 20 20 20 20 20 20 15 13 15 14 13 13 13 14 15 16 17 18 19 20 22 23 23 24 23 23 23 23 22 21 20 22 26 27 25 23 23 25 21 18 21 21 22 22 22 24 24 23 23 24 26 26 15 13 20 22 21 20 20 22 23 25 25
19 19 19 19 19 19 19 19 19 19 19 19 20 20 20 21 21 21 21 22 22 22 22 22 21 21 22 22 21 22 23 18 16 18 18 17 16 16 17 18 19 20 20 20 21 22 23 25 26 25 25 26 26 25 24 24 24 27 28 27 25 25 27 24 24 25 24 24 23 24 25 24 23 25 27 28 23 15 15 19 22 21 20 21 23 23 24 24
21 21 21 21 21 21 21 21 20 20 20 21 21 21 22 22 22 22 22 23 23 23 23 23 23 22 23 23 23 25 25 19 18 21 21 21 20 20 20 20 21 21 21 21 21 22 24 26 26 26 28 28 28 27 27 27 28 30 29 28 28 29 29 27 28 28 27 27 26 27 26 24 24 27 32 31 22 14 15 19 21 22 22 23 25 25 24 23
23 23 23 23 23 23 23 22 22 22 22 22 22 23 23 23 24 24 23 23 23 24 24 24 24 23 24 24 25 27 24 18 19 21 21 21 20 20 21 21 22 22 21 21 21 22 24 25 25 26 28 28 29 30 29 29 30 30 30 30 31 32 31 30 31 31 31 31 30 31 29 26 26 30 35 31 21 15 16 20 21 23 25 26 27 27 26 24
24 24 25 25 24 24 24 24 24 24 24 24 24 24 25 25 26 26 26 25 25 26 25 26 26 25 26 25 27 30 22 18 21 22 21 20 20 20 21 22 23 23 23 23 23 24 24 23 23 25 27 29 30 31 31 31 32 32 32 33 34 34 34 33 34 33 34 34 32 34 31 29 29 33 37 29 21 20 22 23 22 23 24 25 27 26 25 24
25 25 26 26 26 26 25 25 25 25 25 25 25 26 26 26 27 27 27 27 27 27 27 27 27 28 28 27 31 30 21 21 24 24 24 22 21 22 24 25 25 25 26 26 25 25 26 25 25 25 26 28 29 30 31 32 33 33 34 36 36 37 37 36 36 35 36 36 35 37 36 33 31 35 37 30 26 27 26 26 26 26 25 24 25 25 25 25
27 27 27 27 27 27 27 27 26 26 26 26 26 26 27 28 28 28 28 28 28 29 29 29 29 29 30 31 32 28 24 25 26 25 25 24 24 25 27 28 27 27 28 28 28 28 28 28 28 27 25 27 29 30 31 31 33 33 34 37 38 39 39 37 37 37 38 38 37 37 37 36 34 37 38 32 30 30 30 31 30 29 27 26 27 27 28 29
28 28 28 28 29 29 29 29 28 28 28 28 28 28 28 29 29 29 29 29 29 30 30 30 30 31 32 33 30 27 27 27 26 25 24 24 26 27 28 29 28 29 29 29 29 29 30 30 29 28 27 28 29 30 32 33 34 35 36 39 40 42 41 36 37 38 38 39 39 38 37 41 40 37 36 32 32 33 34 35 32 31 31 31 31 31 31 31
27 28 28 28 29 29 29 30 30 30 29 30 30 30 30 30 31 31 31 31 31 31 31 31 32 32 34 34 29 29 29 27 27 26 25 26 27 28 29 30 30 31 31 31 30 30 30 30 29 29 28 28 29 31 34 36 36 36 38 41 41 42 41 37 37 39 41 42 43 40 40 46 44 38 37 35 35 38 39 39 37 36 35 35 35 34 35 34
26 26 27 27 27 27 28 28 29 29 29 30 30 31 31 31 32 32 32 32 32 33 32 33 33 34 37 35 31 31 29 26 25 24 25 26 26 27 29 30 31 31 31 30 29 29 29 29 29 28 27 27 28 31 36 36 35 35 38 41 40 41 43 40 37 38 42 43 44 41 42 48 47 41 39 39 40 42 43 44 42 41 39 38 37 36 38 38
25 25 25 25 25 25 26 26 26 26 27 28 28 29 29 30 31 32 33 33 34 35 34 35 34 35 38 36 32 30 28 26 25 24 25 25 26 27 29 30 31 31 31 31 31 31 32 30 28 26 26 26 27 33 36 35 35 37 38 41 41 41 44 43 38 37 41 45 48 45 44 49 49 45 42 42 44 45 46 46 44 43 41 41 40 39 39 39
25 25 24 24 24 24 24 24 24 24 24 25 26 26 26 27 27 29 30 31 32 33 34 35 35 37 39 36 33 31 29 28 27 25 25 24 25 27 27 28 29 29 30 30 30 31 31 29 27 26 25 26 29 34 33 30 35 39 39 41 41 40 41 42 41 39 40 45 49 49 50 54 53 48 46 43 44 46 47 46 45 44 43 44 43 42 42 41
26 25 25 24 24 24 23 23 24 23 23 24 25 24 25 25 26 27 28 28 30 31 32 33 33 36 36 32 31 30 27 28 28 27 27 27 28 29 30 30 29 29 29 29 30 31 30 29 29 27 27 29 33 36 33 31 36 40 40 41 41 41 41 42 44 42 42 47 51 51 54 57 55 51 48 44 42 46 48 47 47 46 45 45 45 44 43 41
26 26 25 25 25 24 24 24 24 24 23 24 25 25 25 26 26 27 27 28 28 29 30 31 30 32 32 30 29 29 28 29 30 30 30 30 31 33 34 34 35 35 34 34 35 36 34 33 33 31 33 37 37 38 38 37 39 39 40 41 42 43 44 43 45 44 42 47 51 51 55 57 55 52 49 46 42 45 48 48 49 48 47 46 45 45 42 41
26 26 26 25 25 25 25 24 24 25 24 24 25 26 26 27 27 28 28 29 29 29 31 31 32 33 33 31 30 29 29 29 29 29 30 31 32 34 35 36 38 39 38 37 38 38 37 38 39 38 39 40 38 37 39 39 38 38 39 41 42 44 46 45 44 43 41 49 54 51 54 57 54 52 49 47 45 45 46 48 49 48 47 46 44 43 41 39
26 26 26 26 25 25 25 25 25 25 25 25 25 26 26 28 29 30 31 32 30 31 32 32 34 36 34 31 30 30 31 30 30 30 30 31 32 34 36 37 40 41 39 37 38 38 39 43 44 41 40 39 37 36 37 39 37 37 39 41 43 45 48 47 43 42 41 48 55 50 52 58 55 52 48 45 46 46 45 46 47 47 45 44 42 40 39 36
26 26 26 25 25 25 25 25 25 25 25 25 25 25 26 27 29 31 34 36 34 32 34 34 36 39 35 32 32 32 34 34 32 32 32 32 33 35 37 38 40 41 38 36 37 40 43 48 45 39 37 35 34 33 34 35 36 37 37 40 45 45 47 50 45 43 41 44 52 51 54 60 55 52 49 45 46 46 42 41 42 43 42 41 39 38 37 37
25 25 24 25 25 24 25 24 23 23 22 22 22 23 24 25 27 29 33 38 38 34 34 35 36 38 35 31 32 32 35 36 34 34 33 33 35 34 37 40 40 40 39 38 39 43 46 46 41 36 34 35 36 35 32 34 38 40 40 41 47 46 45 50 48 43 42 44 49 50 56 62 57 52 48 41 41 41 38 39 38 39 40 40 40 38 37 38
24 23 23 23 23 22 22 22 20 19 19 20 21 22 23 25 27 29 33 38 43 39 34 35 36 36 33 30 30 31 35 35 35 36 34 34 35 35 38 39 39 41 41 40 41 46 48 44 41 39 39 40 40 39 36 37 42 45 44 44 46 46 44 48 48 43 43 44 43 44 52 59 48 36 36 36 40 44 41 39 38 37 38 36 34 31 29 30
23 22 21 20 20 20 19 20 21 20 21 22 23 24 25 27 28 31 34 38 45 43 35 33 34 32 27 25 25 27 31 31 31 31 29 31 33 34 37 36 38 40 39 39 40 46 47 41 39 40 41 40 40 40 36 35 41 46 45 41 41 43 42 43 41 39 39 35 31 27 28 37 33 23 35 48 49 47 41 37 36 34 28 19 19 22 21 19
22 21 21 20 21 21 20 22 23 23 24 24 25 26 27 28 30 31 34 38 43 41 30 22 21 19 17 14 14 17 22 21 19 20 21 23 24 27 32 33 34 35 36 36 38 42 42 36 34 36 36 35 35 36 33 31 38 45 42 35 35 37 38 38 34 30 29 24 24 18 10 26 45 44 46 49 45 39 35 31 28 22 13 8 15 21 17 13
24 23 23 23 23 24 24 24 25 26 27 26 27 27 28 29 29 30 30 28 27 24 14 4 5 8 9 7 8 11 14 14 13 13 14 14 17 21 27 31 31 32 34 33 34 38 36 33 32 33 32 31 30 30 28 27 33 41 38 32 32 33 33 33 28 25 27 30 32 24 14 21 46 58 47 38 35 28 25 19 11 5 6 14 21 19 16 18
28 27 28 28 28 27 26 26 27 29 29 28 28 28 28 27 26 27 21 11 9 11 5 2 5 9 11 10 12 15 17 18 15 14 15 17 20 23 26 28 28 30 31 31 37 39 35 34 35 34 34 33 31 29 29 27 30 36 35 32 32 31 32 31 29 28 28 32 26 13 10 11 35 61 48 30 22 12 10 6 4 1 12 23 23 19 21 24
31 31 31 32 32 29 27 26 27 29 28 28 28 28 27 24 24 24 14 6 8 9 9 10 11 13 15 14 16 18 19 19 18 19 21 21 22 22 23 24 23 26 27 30 39 39 34 36 37 37 37 35 32 30 31 30 29 31 31 31 30 28 30 28 28 30 24 24 17 7 7 6 29 55 34 12 10 4 5 5 6 12 23 21 21 24 29 23
31 32 32 34 34 30 27 25 25 27 26 25 25 25 24 22 23 18 9 10 12 12 15 15 12 14 16 16 16 18 18 19 21 22 22 21 20 21 22 22 22 26 28 31 37 38 36 38 39 39 38 36 34 32 33 32 30 30 28 30 30 28 30 27 26 25 13 16 21 17 17 11 17 26 9 3 7 3 6 8 8 28 26 15 18 31 38 29
26 27 28 31 32 30 29 25 23 24 23 22 22 22 21 20 19 11 8 14 18 16 19 14 9 12 15 16 18 18 19 19 20 18 16 17 18 20 21 21 22 25 29 33 36 36 36 37 38 39 36 34 33 32 34 34 32 31 28 29 27 21 21 17 16 12 3 11 20 17 15 14 18 16 8 10 10 6 10 13 26 31 16 10 18 34 39 31
26 27 28 30 30 30 30 27 25 24 22 21 20 20 20 17 17 21 19 18 12 7 8 4 4 7 9 12 13 13 13 14 15 15 15 19 22 25 26 26 26 25 28 33 34 36 38 39 37 37 37 34 32 32 34 34 34 33 32 28 18 8 8 5 4 3 6 15 21 12 6 16 34 42 35 32 28 20 23 28 28 20 11 14 23 32 32 26
29 30 31 32 32 31 30 29 28 26 23 21 19 20 19 13 18 29 29 23 13 8 10 8 7 9 11 15 16 16 19 21 21 21 22 25 28 31 30 29 29 26 27 32 34 36 37 38 38 37 37 35 33 33 33 33 32 32 33 29 16 5 2 3 4 2 7 19 23 16 12 18 35 43 36 33 32 27 26 26 19 16 21 27 30 28 26 26
33 33 33 34 35 34 32 31 29 27 23 22 21 20 19 20 26 30 29 29 27 25 26 25 25 26 28 29 27 26 26 25 25 26 26 27 27 29 29 28 27 28 31 31 31 30 25 29 34 30 29 31 31 28 26 28 31 32 32 28 24 20 11 5 5 4 7 14 14 10 10 14 25 31 29 31 34 33 35 37 34 31 33 33 31 25 22 24
36 36 36 36 36 36 34 31 29 27 24 24 23 22 26 33 35 34 34 35 34 33 35 34 33 34 34 34 31 28 26 24 24 24 25 26 26 27 27 26 25 27 29 26 26 26 23 31 38 29 25 31 31 29 27 26 28 31 30 26 30 34 27 18 17 20 17 11 9 13 17 29 42 48 50 49 51 49 44 42 39 35 30 24 20 17 16 19
39 39 39 40 39 36 34 32 29 27 26 26 26 30 39 43 39 36 36 34 30 29 29 28 28 30 31 30 28 26 23 22 21 20 22 24 26 29 30 29 27 28 30 28 27 26 23 33 41 34 32 33 30 28 26 24 24 24 23 26 31 33 32 26 21 24 19 9 14 23 28 38 44 50 55 50 45 39 31 30 31 25 17 14 15 18 21 26
40 40 41 41 40 36 34 33 30 27 28 28 31 39 48 49 46 45 42 39 37 34 30 29 29 29 26 24 25 22 17 17 18 19 22 22 22 25 29 29 29 30 31 30 33 32 29 36 44 43 42 39 34 31 26 25 26 25 24 27 27 22 25 25 11 7 10 7 12 24 32 37 30 33 44 41 36 37 32 29 26 19 15 19 27 31 31 31
40 40 41 40 37 34 34 33 30 29 29 31 38 45 49 49 49 48 44 43 43 40 36 34 32 31 28 29 32 28 22 20 19 19 21 20 19 22 27 29 30 31 31 29 33 36 33 31 36 42 42 34 30 31 28 26 28 30 31 32 27 17 16 20 11 3 7 7 6 15 27 34 33 41 53 48 42 42 32 21 17 19 23 28 32 32 28 27
38 39 41 39 35 32 32 31 29 29 30 35 42 46 48 49 50 48 45 44 42 39 38 37 35 32 33 35 36 33 30 27 24 23 23 21 21 22 24 25 25 26 27 29 33 37 34 24 24 38 42 31 25 27 28 27 25 27 31 33 32 27 20 19 16 10 8 8 8 10 14 21 34 49 56 50 41 32 23 20 20 23 28 29 26 21 18 19
35 36 39 37 33 30 29 29 29 31 35 41 45 47 48 48 47 46 45 43 42 39 38 40 38 36 37 39 38 37 35 33 30 30 28 26 26 26 23 23 23 22 23 26 28 30 30 24 22 34 40 35 33 33 31 27 22 20 24 28 31 33 30 23 20 21 18 9 6 8 8 16 31 46 52 50 43 35 29 27 27 27 26 22 17 14 12 15
33 35 37 34 30 28 27 28 32 35 40 44 45 46 46 45 45 46 44 42 41 40 39 39 39 39 40 40 39 38 35 34 35 34 33 33 33 31 28 27 26 26 25 26 25 24 23 22 24 29 34 37 39 39 36 33 29 26 24 24 25 29 29 21 14 24 30 20 12 11 9 16 31 44 53 56 53 49 44 40 41 42 37 28 24 22 22 22
33 35 34 30 28 26 25 29 33 36 41 44 44 44 44 43 44 44 43 43 42 39 38 38 39 40 40 39 40 39 36 37 38 36 36 38 37 35 33 31 31 33 33 32 31 32 33 30 30 34 39 43 41 38 38 39 40 40 36 33 30 29 30 25 15 20 28 24 22 21 13 17 34 46 52 56 56 55 54 52 52 50 45 41 41 41 41 41
34 35 33 31 29 25 23 28 32 36 41 41 40 41 41 41 42 41 41 42 40 37 36 36 36 37 38 37 37 36 36 37 38 39 39 40 40 40 38 36 36 35 35 36 36 37 35 30 30 34 38 40 39 39 42 42 42 44 45 44 43 41 42 40 33 31 28 22 22 18 9 15 33 45 50 52 54 54 54 55 55 54 54 56 55 53 53 54
34 34 32 32 31 27 28 32 34 37 40 39 39 40 39 39 39 40 41 41 39 37 36 35 34 34 34 34 33 35 35 34 35 37 38 38 40 41 39 36 36 35 35 37 36 34 31 26 24 22 19 21 25 26 32 39 41 44 46 46 48 50 49 45 44 38 28 26 29 20 11 22 39 47 50 53 57 60 60 61 61 61 62 61 60 60 59 57
31 31 30 30 31 31 33 35 36 38 38 38 40 40 40 40 41 40 41 42 40 38 37 37 35 35 35 34 35 37 37 35 35 36 38 39 40 40 39 37 36 35 34 34 34 34 35 33 29 20 11 11 15 17 23 30 31 32 36 37 39 44 43 42 43 34 21 27 37 28 23 37 48 48 51 56 61 65 66 65 64 62 61 60 60 60 55 50
29 29 29 29 30 33 35 35 35 39 39 38 39 39 40 42 42 41 41 42 40 38 38 38 37 36 38 38 39 39 39 39 39 40 42 43 41 40 40 39 37 35 33 32 32 34 37 39 38 36 32 30 33 36 38 37 33 30 31 31 32 35 38 40 39 34 29 32 39 39 39 46 49 48 52 57 59 60 61 60 59 59 58 55 53 52 48 45
29 30 30 27 26 28 33 35 36 40 40 39 40 39 40 41 40 39 39 40 38 36 36 37 36 37 38 39 39 39 40 40 40 41 41 41 42 42 42 42 41 40 39 37 37 37 38 38 39 41 42 43 45 48 48 46 46 46 43 43 41 39 41 43 41 43 43 35 31 38 43 44 45 46 49 53 55 57 57 56 55 58 58 53 50 51 53 54
30 31 30 28 28 28 31 33 35 37 38 39 40 40 40 40 40 40 40 39 37 35 35 36 36 37 38 37 37 37 37 37 38 39 40 40 41 43 42 42 41 42 42 41 40 38 36 37 42 44 43 44 46 47 49 51 53 53 50 50 48 44 45 48 50 53 51 41 38 43 45 46 49 50 50 53 55 56 56 56 57 61 63 62 63 64 64 63
32 33 31 31 33 34 33 33 33 35 36 37 39 39 39 41 42 41 39 39 39 38 37 36 36 36 35 34 35 36 37 36 35 34 35 36 35 36 37 37 35 34 33 32 30 27 25 26 31 35 36 36 37 38 41 46 49 52 51 49 47 45 46 50 53 54 53 52 54 55 53 55 59 57 55 55 55 57 59 60 63 65 66 68 69 69 68 66
33 35 34 34 35 35 35 35 34 35 36 36 38 40 39 39 39 38 36 36 38 39 37 37 37 37 36 34 34 35 35 34 33 30 29 29 28 28 29 30 30 29 28 27 26 25 25 26 26 30 33 34 36 38 39 40 42 44 45 44 44 46 48 50 51 52 54 58 60 59 58 57 54 51 51 53 55 57 59 61 63 65 66 67 67 67 67 65
35 35 35 36 37 35 35 36 35 36 37 37 40 41 40 40 40 39 38 37 38 39 37 34 32 31 31 32 33 34 33 34 35 35 35 37 38 38 37 38 40 40 39 41 40 38 38 37 37 38 35 36 41 42 39 41 40 39 40 43 47 49 49 49 48 47 51 55 56 54 51 42 35 38 45 51 53 53 52 54 56 58 59 61 61 61 61 59
35 36 35 36 38 37 37 37 36 37 40 39 39 39 39 40 41 41 42 41 40 41 41 38 37 36 35 36 38 40 43 45 46 46 47 47 48 48 47 46 46 46 48 50 49 47 44 39 38 35 31 34 40 39 38 37 29 29 38 44 45 46 45 46 45 43 45 48 46 43 37 28 22 25 32 38 43 45 45 47 50 52 54 55 54 55 55 53
Wind_Direction
258 259 260 260 260 260 259 259 258 258 257 257 257 257 254 253 253 252 253 254 255 256 255 255 256 258 259 260 264 266 268 270 270 270 268 268 271 272 268 266 266 267 270 271 271 270 271 273 272 271 271 271 272 273 274 274 277 277 276 275 275 281 290 293 286 283 290 294 290 289 291 291 295 297 295 293 293 296 294 293 294 297 301 303 301 293 285 280
262 263 264 264 264 264 264 265 265 264 264 264 265 263 263 263 262 260 260 260 260 260 260 260 259 259 259 259 261 263 266 268 270 272 271 270 271 272 272 270 270 271 271 271 273 274 275 276 276 276 274 275 276 275 275 276 278 277 278 276 276 285 290 286 282 285 291 292 290 291 291 291 296 298 294 292 294 295 293 295 299 301 305 303 297 292 288 286
264 265 266 267 267 267 267 268 268 268 269 269 269 269 269 269 268 267 267 267 266 265 265 264 263 263 262 261 261 262 264 266 271 272 270 271 271 271 272 272 273 275 273 272 273 274 277 278 277 276 275 275 277 277 277 278 279 278 275 274 281 289 284 281 285 286 286 287 289 291 291 292 296 295 292 294 297 295 298 307 307 306 308 300 293 291 290 288
263 263 264 265 266 267 267 268 267 268 269 270 270 271 272 272 272 272 272 273 272 272 272 270 269 268 266 265 264 264 265 269 274 273 272 273 272 271 271 272 274 274 274 273 272 273 276 277 277 277 276 275 276 277 277 279 280 276 272 275 283 285 280 283 287 284 281 283 287 291 293 294 295 292 291 297 297 300 326 321 311 308 307 299 291 288 286 285
261 262 262 263 264 265 265 266 266 267 267 268 269 270 271 272 273 274 274 275 276 276 277 277 276 275 274 272 270 269 270 276 276 270 270 271 272 272 272 272 273 275 275 274 273 272 274 276 279 279 278 278 278 277 276 277 276 275 275 277 281 281 282 283 283 279 279 280 284 291 294 293 293 291 293 295 291 301 338 316 310 311 308 299 288 282 280 282
261 261 261 262 262 263 263 264 264 265 266 266 267 268 269 269 271 272 272 274 274 275 276 277 278 278 278 276 276 274 273 274 273 269 268 266 266 270 273 273 273 275 277 278 276 273 273 275 277 279 281 281 279 279 280 278 275 275 276 277 279 282 282 283 281 277 277 278 282 289 289 289 291 291 292 289 284 295 321 311 309 311 305 294 284 280 280 281
260 260 260 260 260 261 262 263 264 265 266 267 267 268 268 269 269 270 272 272 272 274 274 274 275 275 276 275 275 274 272 273 273 272 270 267 266 269 272 273 274 276 278 279 276 274 273 272 275 279 281 281 280 280 281 280 278 277 277 280 282 281 281 284 283 279 278 278 281 286 285 285 291 293 287 281 281 296 316 311 306 305 299 288 283 282 281 282
262 261 261 261 261 261 262 263 264 265 267 268 269 269 270 270 270 270 271 272 273 273 273 274 273 272 273 272 271 270 270 275 277 273 272 271 270 270 271 273 274 276 277 277 275 273 271 271 275 279 280 281 280 277 277 278 278 276 278 282 282 280 280 283 282 281 282 281 283 284 284 285 291 293 283 277 283 298 313 307 297 294 289 283 282 282 283 285
265 265 265 264 263 263 264 264 265 266 267 268 269 270 271 272 272 272 272 273 274 274 274 275 274 273 272 271 271 266 267 275 274 271 272 271 271 271 272 272 272 273 275 275 275 273 272 275 278 278 279 278 276 275 275 276 275 276 279 280 279 279 280 280 280 281 282 282 285 284 285 287 290 289 281 280 287 294 303 300 291 287 283 281 282 283 287 289
267 268 268 268 267 267 266 266 267 267 268 269 270 271 272 273 273 274 274 276 277 277 278 278 277 277 274 273 271 266 268 273 270 269 270 269 270 272 272 271 270 271 272 272 272 273 274 275 274 273 274 274 274 275 275 275 276 277 278 277 277 278 279 279 279 280 281 284 285 283 285 287 286 282 279 284 294 293 294 293 291 289 283 282 283 285 288 287
266 267 269 269 270 269 269 269 269 269 270 271 271 272 273 274 274 275 275 277 278 279 280 281 281 280 279 275 269 269 273 272 268 269 270 270 270 270 270 269 269 269 269 270 270 270 270 269 268 269 271 272 274 276 276 276 277 277 277 277 276 278 278 278 280 282 283 285 286 285 285 283 279 276 278 289 297 293 289 288 289 290 287 283 281 282 283 281
265 266 267 269 270 271 271 271 271 271 271 271 272 272 273 273 274 274 275 276 277 278 279 281 281 281 281 275 270 274 277 272 271 271 272 273 270 268 267 267 268 268 267 267 267 267 268 267 267 266 266 269 272 275 276 276 276 277 278 278 277 278 278 279 281 283 284 286 288 288 284 280 278 277 282 290 294 291 288 287 289 289 287 285 282 281 279 279
265 265 266 267 269 270 272 272 273 273 273 273 273 272 273 273 273 274 275 275 276 276 277 279 280 280 279 274 273 277 276 274 275 276 279 277 271 267 267 267 268 267 266 266 265 266 266 266 266 265 264 267 271 272 274 274 274 275 277 278 279 279 280 282 284 285 287 289 291 290 283 282 283 281 285 291 292 290 288 288 289 289 288 287 286 283 280 279
265 266 267 267 268 270 271 272 273 274 274 274 274 273 273 274 274 275 275 275 276 276 277 278 278 279 277 275 276 277 277 277 278 281 282 277 273 272 270 270 269 267 267 267 267 267 267 266 265 265 265 267 270 272 272 271 272 275 276 276 276 277 278 283 287 290 293 293 295 292 283 285 288 285 287 292 292 291 289 289 289 289 290 289 288 285 281 280
267 268 269 269 270 271 272 273 274 275 275 275 275 275 275 275 275 276 276 276 276 276 276 277 277 278 278 277 278 279 280 281 282 284 281 278 277 274 271 270 269 268 268 267 268 269 270 269 266 266 267 268 271 271 269 269 272 274 274 274 274 275 278 284 288 291 294 293 293 289 283 287 290 288 290 293 292 291 291 290 289 290 289 288 288 285 282 281
270 270 271 272 273 275 276 277 278 279 279 279 279 279 279 278 277 277 277 277 276 276 276 276 276 277 277 279 281 281 284 286 285 282 280 280 278 274 272 270 270 269 268 268 268 269 271 270 268 267 268 269 271 270 268 269 271 271 270 272 275 277 282 288 289 287 287 288 290 289 287 289 290 290 291 292 292 292 292 291 290 290 288 287 286 285 282 282
271 272 273 274 275 276 278 279 281 282 282 282 282 283 283 282 281 280 278 278 277 277 276 276 276 276 275 279 282 283 286 286 284 282 281 280 278 276 275 273 272 269 267 267 267 269 269 269 268 269 271 272 270 267 264 263 268 271 274 276 279 284 287 290 289 286 286 288 291 291 289 289 291 292 292 291 292 293 292 291 290 288 286 286 286 286 285 284
272 272 273 274 274 275 276 277 279 280 282 283 282 283 283 283 283 281 280 279 278 278 277 276 277 276 277 280 283 284 285 284 283 282 280 279 278 277 275 274 272 269 267 267 267 268 269 270 270 269 270 270 267 263 258 263 275 281 283 284 286 288 287 287 289 289 291 291 291 290 289 290 293 294 294 293 293 292 291 290 288 286 285 285 287 287 286 285
272 273 273 273 274 274 275 276 277 278 280 282 283 283 283 282 281 281 280 279 277 277 277 277 276 275 278 282 283 284 283 281 280 280 279 277 275 273 272 271 270 268 267 268 269 269 271 271 268 266 268 269 269 270 271 280 288 289 287 285 284 285 283 285 287 291 295 292 289 288 288 291 293 294 295 294 292 289 288 287 286 285 286 286 287 287 285 285
271 272 273 274 274 275 276 277 278 279 279 281 283 284 284 284 284 283 281 279 278 278 277 278 278 276 278 282 283 284 282 279 278 277 276 274 272 271 269 268 267 266 266 268 269 270 271 269 265 266 271 274 278 282 286 289 289 286 284 282 281 281 281 285 288 293 297 290 287 289 291 291 292 293 294 293 291 287 284 285 285 286 287 288 288 287 285 285
269 271 273 274 275 276 277 278 279 280 280 280 282 282 283 285 286 285 283 280 279 279 279 279 280 279 279 283 284 283 280 277 276 274 273 272 271 270 268 267 266 266 267 268 269 271 270 266 266 272 277 282 286 287 286 285 283 282 281 280 280 278 282 288 291 294 296 289 288 293 293 291 292 292 292 290 289 286 285 285 286 288 290 290 290 288 286 286
269 270 272 273 275 276 277 279 280 281 281 281 281 281 282 284 286 287 287 284 280 279 280 281 280 280 282 284 283 282 278 276 276 273 271 271 268 268 269 269 267 268 268 267 267 269 266 264 270 278 283 286 285 282 281 282 282 280 279 277 277 280 287 291 292 296 297 290 290 296 294 291 292 291 290 289 287 286 287 287 288 291 292 292 290 288 287 286
269 270 272 273 275 276 277 278 279 280 281 282 282 283 285 286 288 290 291 290 286 281 281 282 282 282 285 284 280 278 275 274 274 271 268 266 265 265 267 267 269 270 269 266 267 266 264 267 276 282 283 281 280 279 280 282 281 279 278 275 276 283 288 288 292 299 298 292 293 298 294 291 291 290 289 288 287 287 288 289 292 292 293 293 292 290 287 285
269 270 272 273 274 275 276 277 276 278 280 284 287 289 290 291 293 294 294 294 291 286 284 284 284 285 286 282 276 271 269 270 269 268 266 264 264 263 264 267 270 270 270 271 271 269 269 273 279 279 277 277 277 278 278 279 280 280 277 275 279 287 288 287 293 298 295 292 294 299 297 293 294 294 292 293 292 293 295 296 295 294 295 297 296 296 293 288
269 269 270 272 273 274 275 277 278 280 283 287 290 293 294 295 297 298 299 298 295 294 293 288 286 287 285 277 269 263 263 266 267 268 268 265 263 263 264 266 268 271 274 274 273 272 273 276 277 275 275 275 275 276 276 276 278 277 276 278 285 290 290 290 296 298 294 293 296 304 303 298 299 294 292 297 298 299 302 300 299 302 302 300 304 312 311 300
266 267 269 270 271 274 275 279 282 283 285 288 291 293 295 296 299 301 303 302 298 298 300 294 283 281 282 273 260 256 260 265 266 267 266 263 263 263 264 264 267 270 272 273 273 273 275 278 278 276 276 275 272 273 275 274 272 272 277 286 290 289 289 292 296 294 288 290 294 294 280 291 297 293 292 298 300 302 305 303 303 308 307 301 318 323 322 317
265 266 268 270 272 273 275 278 281 283 284 286 288 291 293 296 300 304 308 307 300 301 307 296 241 253 274 274 257 258 262 266 269 265 260 262 266 267 266 267 269 271 272 272 270 271 278 283 282 281 279 274 267 272 284 280 268 271 283 289 286 287 289 291 293 287 284 289 291 283 258 272 289 292 295 301 302 305 307 306 304 303 308 314 321 322 320 322
268 268 269 270 271 272 274 277 279 280 282 284 286 288 290 294 298 302 309 310 295 304 308 237 240 257 270 271 264 265 266 266 268 264 264 270 273 271 269 270 271 272 274 271 268 273 282 284 283 281 277 274 276 284 294 286 272 276 285 285 281 284 284 284 285 283 287 294 292 277 244 241 279 289 296 302 301 311 312 295 164 245 318 318 318 318 318 319
272 273 273 273 271 272 275 276 276 277 280 282 283 285 286 291 295 295 294 267 274 298 287 269 266 265 270 268 262 261 260 262 265 267 273 275 272 270 269 272 276 276 277 273 274 280 285 284 282 277 274 278 285 290 289 282 277 280 283 281 279 279 278 279 281 280 286 289 278 232 222 230 282 290 298 299 287 303 288 190 168 309 317 312 311 317 320 315
273 274 274 273 273 275 276 277 278 278 279 279 280 282 284 288 290 285 262 248 272 292 286 278 268 264 266 259 253 254 256 259 264 267 272 271 269 271 271 274 278 280 281 278 279 284 286 284 280 276 278 282 284 285 283 280 277 276 276 276 276 275 276 276 273 274 282 278 266 261 264 252 275 296 331 17 291 243 193 182 272 309 313 295 302 316 318 313
274 275 275 274 275 276 277 279 282 280 280 279 279 281 283 288 284 261 227 261 280 286 281 277 263 256 253 247 249 254 256 258 261 262 266 270 271 273 275 278 281 283 282 280 280 283 284 282 281 283 285 286 284 283 281 280 276 273 271 269 272 276 278 274 264 256 227 267 271 272 271 241 237 265 303 311 299 199 209 275 295 305 305 261 296 313 313 312
278 278 278 278 278 278 278 280 280 279 278 278 279 276 278 285 267 243 241 266 288 290 270 256 214 220 221 229 235 241 248 251 253 256 266 274 276 276 276 276 278 280 279 279 281 282 280 279 281 285 285 284 283 278 275 275 274 271 265 257 258 283 291 269 233 204 206 254 267 264 239 231 246 262 273 280 285 273 274 292 296 295 288 271 293 304 303 303
280 280 280 278 277 276 275 275 275 274 275 274 272 268 268 267 255 251 252 258 261 260 266 269 257 250 249 248 245 250 258 258 258 260 266 272 274 275 274 272 270 269 271 276 280 282 283 280 278 279 281 281 277 271 271 276 276 272 264 250 232 212 280 256 251 277 251 258 265 256 240 249 261 272 279 281 287 289 292 299 294 287 296 294 293 291 285 285
279 280 279 277 277 275 273 272 271 271 271 267 264 262 254 244 249 257 260 260 260 264 269 272 273 273 271 268 266 267 267 265 265 266 267 267 267 269 272 272 271 269 271 274 275 276 279 281 281 279 278 279 275 271 276 282 282 278 271 258 239 231 229 229 237 240 262 273 270 233 219 251 267 276 283 285 288 289 291 293 291 293 300 298 291 283 271 269
278 277 277 276 275 275 274 271 268 265 262 260 258 252 244 244 251 257 262 265 265 267 269 272 275 275 274 273 273 273 271 269 268 266 265 261 260 264 267 267 267 267 266 265 267 272 273 278 283 285 280 280 279 278 279 276 272 269 263 246 238 243 245 245 248 249 260 286 267 230 237 257 267 274 277 280 284 286 288 290 293 298 299 295 291 288 279 276
276 275 274 274 274 274 272 268 264 258 256 255 249 243 245 250 255 259 263 268 268 268 271 273 272 272 274 277 278 277 272 264 261 261 260 259 259 260 261 260 258 258 258 257 264 272 272 274 280 283 283 283 282 281 276 264 256 254 247 239 245 254 254 251 254 256 255 270 259 252 259 266 271 278 279 280 284 284 285 291 297 299 287 282 294 300 298 291
273 272 271 271 270 269 267 265 260 253 250 246 239 243 251 255 259 261 263 266 267 267 268 268 267 268 270 274 275 274 267 261 261 259 258 259 258 257 257 255 252 252 253 258 266 269 267 271 275 275 277 278 277 277 269 253 247 243 243 254 262 264 255 247 250 262 243 247 256 249 259 271 276 280 280 282 285 283 285 290 292 286 274 286 298 301 298 286
270 270 269 269 266 263 261 259 255 250 247 242 241 248 255 257 260 262 261 262 265 266 264 262 263 264 264 267 270 270 267 266 263 257 256 256 254 258 262 259 256 256 256 256 262 262 261 266 270 268 270 273 271 269 263 251 247 244 248 257 260 257 250 234 220 237 238 243 256 234 247 263 265 269 276 280 282 285 288 287 283 289 294 299 300 297 290 275
267 267 268 268 265 260 258 255 251 246 240 238 243 249 254 256 259 261 260 260 261 260 260 260 261 262 263 265 268 270 269 266 261 257 258 256 254 262 268 265 261 260 258 252 250 253 253 255 262 262 262 265 264 262 264 263 260 255 252 252 252 253 255 239 227 233 236 247 263 238 237 253 258 266 274 279 281 281 280 282 292 304 305 301 291 278 266 258
266 266 267 267 263 260 257 251 243 238 235 237 243 249 253 256 259 262 263 262 260 257 258 261 262 262 264 266 268 270 270 268 265 262 259 257 258 262 265 264 261 259 256 248 243 247 248 243 249 254 255 261 263 261 265 268 267 265 256 252 253 254 256 255 247 244 244 249 259 250 245 246 253 263 269 272 275 275 277 288 296 299 299 292 276 264 259 246
266 265 267 267 263 259 253 243 237 236 236 238 244 248 251 256 261 264 265 263 262 261 261 262 263 264 266 267 268 269 269 269 269 267 263 262 262 262 261 260 258 256 253 248 243 245 250 251 257 261 261 263 263 263 267 269 267 268 261 254 256 257 257 261 257 246 245 246 248 255 259 247 250 260 265 267 271 274 277 283 286 287 288 283 272 271 277 269
264 265 267 268 263 258 250 242 240 240 239 241 247 250 252 256 260 263 265 265 264 264 264 264 263 263 264 265 267 269 270 270 269 269 268 267 265 264 265 264 261 259 260 263 263 265 271 273 271 272 272 271 271 271 271 272 272 269 264 257 254 254 252 251 251 251 250 251 255 259 261 254 256 262 267 270 274 278 281 283 285 287 289 288 284 280 281 285
263 264 265 264 261 256 246 241 242 242 241 246 253 254 253 255 257 261 263 262 262 263 262 261 261 261 263 265 268 270 270 270 270 269 270 271 270 270 270 270 269 268 271 275 277 277 275 272 267 270 275 276 276 276 272 272 270 263 260 260 255 250 249 248 252 259 260 258 259 262 259 255 262 268 272 276 280 282 284 285 287 289 290 292 293 290 289 290
262 263 262 261 259 250 239 239 242 243 245 250 253 253 254 253 255 260 262 261 262 263 262 262 262 263 265 266 267 268 268 268 270 271 272 272 274 275 276 275 274 275 276 276 277 277 272 265 261 265 275 277 275 273 271 269 266 259 260 262 258 254 253 253 256 260 261 257 256 257 257 258 267 274 277 280 283 284 285 287 288 289 291 293 296 296 296 296
262 262 259 257 254 246 241 242 245 247 249 251 251 252 255 255 256 259 260 260 260 261 262 263 264 265 266 266 266 266 265 265 268 271 273 274 276 278 279 280 278 276 275 274 275 273 267 263 257 251 251 263 264 263 265 270 272 268 265 265 262 260 259 258 258 255 254 258 254 250 259 266 271 275 277 280 282 284 286 287 288 290 293 296 298 298 298 298
263 261 259 256 251 248 248 248 244 245 249 251 251 252 254 256 259 259 258 258 259 260 262 264 265 265 266 265 265 266 267 267 268 270 272 273 275 276 277 278 277 273 271 271 269 266 262 261 258 253 252 254 259 265 270 273 274 272 268 267 266 267 268 266 259 252 255 263 258 254 263 270 271 274 276 279 281 282 286 289 292 295 297 298 297 295 295 295
263 262 261 259 252 248 252 252 246 244 247 248 249 252 255 258 260 260 260 262 262 263 264 264 263 263 264 266 268 270 270 270 270 269 270 271 272 272 273 274 273 272 271 270 268 266 265 264 264 262 261 261 265 271 274 274 272 270 269 268 267 270 271 266 259 258 262 265 262 262 267 270 272 274 276 279 282 284 288 292 294 296 295 293 291 290 290 290
263 262 260 256 253 251 253 253 250 247 248 248 248 250 252 254 255 256 258 262 264 264 264 263 262 261 262 265 267 269 270 270 269 269 269 269 269 269 270 270 271 272 271 270 268 266 266 268 268 268 268 270 272 275 276 275 274 272 271 271 271 272 271 266 264 265 265 261 263 268 270 272 276 278 278 279 282 283 284 285 284 283 283 284 284 286 286 287
262 261 258 254 254 256 256 255 254 251 248 248 250 251 252 253 254 255 258 262 264 264 263 265 267 265 265 267 267 265 264 263 263 264 262 259 259 261 264 264 265 265 267 270 266 262 269 275 270 269 273 276 276 277 279 280 278 275 272 273 273 272 271 270 270 272 271 268 270 274 274 276 279 280 277 275 275 273 274 275 276 276 277 278 279 281 283 285
261 260 258 255 255 258 257 255 254 252 249 246 247 250 253 255 257 259 261 261 262 263 266 269 270 267 266 267 262 255 252 251 252 254 256 256 256 262 266 265 263 260 262 269 267 265 277 284 279 281 287 287 284 283 284 286 286 283 279 278 276 274 274 275 276 279 279 276 277 278 276 276 277 274 271 271 270 270 270 271 272 273 274 275 277 278 280 282
263 261 260 259 257 257 257 254 252 251 251 249 247 248 251 252 252 254 255 256 257 260 263 265 262 257 254 254 252 252 255 257 259 263 267 269 270 272 274 274 273 271 270 272 274 275 280 284 285 289 290 287 286 286 285 287 287 284 281 280 279 278 279 280 281 283 280 277 278 278 276 276 274 267 266 269 269 269 269 269 269 270 271 273 275 276 278 278
264 262 260 259 259 258 256 254 252 248 250 252 252 250 249 251 252 252 253 255 256 259 260 257 254 252 252 252 254 258 261 264 268 271 273 275 276 276 277 276 276 276 275 275 277 278 280 282 285 287 284 282 284 286 286 288 288 279 276 277 280 281 283 284 284 281 275 272 273 273 271 272 274 268 265 264 264 264 264 264 266 267 268 269 270 272 273 274
Height
3194 3194 3194 3193 3193 3193 3193 3193 3192 3192 3192 3191 3191 3191 3190 3190 3190 3190 3190 3189 3189 3189 3189 3188 3188 3188 3187 3187 3186 3186 3185 3185 3185 3185 3185 3184 3183 3183 3183 3183 3183 3182 3182 3182 3181 3181 3180 3180 3180 3180 3179 3179 3178 3178 3177 3176 3176 3175 3174 3173 3172 3172 3172 3171 3170 3169 3168 3167 3167 3166 3165 3163 3163 3163 3161 3159 3159 3158 3157 3157 3157 3156 3156 3156 3155 3154 3153 3153
3193 3193 3193 3192 3192 3192 3192 3192 3191 3191 3191 3190 3190 3190 3189 3189 3189 3188 3188 3188 3188 3188 3187 3187 3187 3186 3186 3186 3185 3185 3184 3184 3184 3184 3184 3183 3183 3182 3182 3182 3182 3182 3181 3181 3180 3180 3179 3179 3179 3179 3178 3178 3177 3177 3176 3176 3175 3174 3173 3171 3171 3171 3171 3170 3169 3168 3167 3166 3165 3164 3164 3162 3162 3161 3159 3157 3157 3156 3154 3154 3155 3155 3155 3154 3153 3152 3151 3151
3192 3192 3191 3191 3191 3191 3191 3191 3190 3190 3190 3189 3189 3189 3188 3188 3187 3187 3187 3186 3186 3186 3186 3186 3185 3185 3185 3184 3184 3183 3183 3183 3183 3183 3182 3182 3182 3181 3181 3181 3181 3180 3180 3180 3179 3178 3178 3178 3178 3177 3177 3177 3176 3176 3175 3175 3174 3173 3172 3170 3170 3170 3169 3169 3168 3167 3166 3164 3163 3163 3162 3161 3161 3159 3157 3155 3154 3154 3153 3153 3153 3153 3153 3152 3151 3150 3149 3149
3190 3190 3190 3190 3190 3190 3189 3189 3189 3189 3188 3188 3188 3187 3187 3186 3186 3186 3185 3185 3185 3185 3184 3184 3184 3184 3183 3183 3183 3182 3181 3182 3182 3181 3181 3181 3180 3180 3180 3179 3179 3179 3179 3178 3178 3177 3177 3176 3176 3176 3175 3175 3174 3174 3173 3173 3172 3170 3169 3168 3169 3169 3167 3168 3168 3166 3165 3163 3161 3161 3160 3160 3160 3158 3156 3155 3153 3152 3152 3152 3151 3151 3151 3151 3149 3148 3147 3146
3189 3188 3188 3188 3188 3188 3188 3188 3187 3187 3187 3186 3186 3186 3185 3185 3185 3184 3184 3184 3183 3183 3183 3183 3182 3182 3182 3182 3181 3181 3180 3181 3181 3180 3180 3179 3179 3179 3178 3178 3178 3178 3177 3177 3176 3176 3175 3175 3174 3174 3173 3173 3172 3172 3172 3172 3171 3167 3166 3167 3167 3166 3164 3166 3166 3164 3163 3162 3160 3160 3159 3158 3158 3156 3155 3153 3151 3151 3151 3150 3149 3149 3149 3148 3146 3145 3145 3145
3187 3186 3186 3186 3186 3186 3186 3185 3185 3185 3185 3184 3184 3184 3183 3183 3183 3183 3182 3182 3182 3182 3181 3181 3181 3181 3180 3180 3180 3179 3179 3180 3180 3178 3178 3178 3178 3178 3177 3177 3177 3176 3176 3175 3175 3174 3174 3173 3172 3172 3171 3170 3170 3169 3170 3170 3168 3165 3164 3165 3165 3165 3162 3163 3164 3162 3161 3160 3159 3159 3157 3156 3156 3154 3153 3151 3150 3150 3150 3149 3147 3147 3146 3145 3144 3143 3143 3143
3184 3184 3184 3184 3184 3183 3183 3183 3183 3183 3183 3182 3182 3182 3181 3181 3181 3180 3180 3180 3180 3180 3180 3180 3179 3179 3179 3178 3178 3177 3177 3179 3179 3177 3177 3177 3177 3176 3176 3176 3175 3175 3174 3174 3173 3173 3172 3171 3170 3170 3169 3168 3168 3167 3167 3166 3165 3163 3161 3162 3163 3162 3160 3160 3160 3159 3159 3158 3158 3157 3155 3155 3154 3152 3150 3147 3148 3150 3149 3148 3146 3145 3144 3142 3141 3141 3141 3141
3183 3182 3182 3182 3182 3181 3181 3181 3181 3181 3180 3180 3180 3179 3179 3179 3178 3178 3178 3178 3178 3178 3177 3177 3177 3177 3177 3176 3176 3175 3174 3177 3177 3176 3175 3175 3175 3175 3174 3174 3173 3173 3173 3172 3171 3171 3170 3169 3169 3169 3167 3167 3166 3165 3165 3164 3162 3160 3160 3160 3159 3158 3158 3158 3157 3156 3156 3155 3155 3155 3153 3153 3152 3150 3145 3143 3147 3149 3148 3146 3145 3143 3142 3141 3140 3139 3139 3139
3181 3181 3180 3180 3180 3180 3179 3179 3179 3178 3178 3178 3178 3177 3177 3176 3176 3176 3176 3176 3176 3175 3175 3175 3175 3175 3174 3174 3174 3171 3173 3175 3175 3173 3173 3173 3173 3173 3173 3172 3171 3171 3170 3170 3169 3169 3168 3168 3168 3167 3165 3164 3163 3162 3162 3161 3160 3159 3158 3158 3156 3155 3156 3155 3154 3153 3152 3152 3152 3151 3151 3151 3150 3146 3140 3141 3146 3147 3146 3145 3143 3142 3140 3140 3138 3137 3137 3137
3179 3178 3178 3178 3178 3178 3177 3177 3177 3177 3176 3176 3176 3175 3175 3174 3174 3173 3173 3173 3173 3173 3173 3172 3172 3172 3172 3173 3171 3168 3172 3174 3172 3171 3171 3171 3171 3171 3171 3170 3169 3169 3168 3167 3167 3166 3166 3166 3165 3164 3163 3162 3161 3160 3160 3159 3157 3157 3156 3155 3154 3153 3153 3152 3151 3151 3150 3150 3149 3147 3147 3148 3147 3143 3136 3138 3144 3145 3144 3143 3142 3140 3139 3138 3137 3136 3135 3134
3177 3176 3176 3176 3175 3175 3175 3175 3175 3175 3174 3174 3174 3173 3172 3172 3171 3171 3171 3171 3170 3170 3170 3169 3169 3169 3169 3170 3167 3166 3171 3171 3169 3169 3169 3169 3170 3169 3168 3167 3167 3166 3165 3165 3164 3164 3163 3162 3162 3161 3161 3160 3159 3158 3157 3157 3155 3155 3153 3151 3151 3150 3149 3149 3148 3148 3147 3146 3146 3144 3143 3144 3143 3139 3135 3138 3142 3141 3140 3139 3139 3138 3137 3136 3135 3134 3132 3131
3174 3174 3174 3173 3173 3173 3173 3173 3173 3173 3172 3172 3171 3171 3170 3169 3169 3168 3168 3168 3168 3167 3167 3167 3166 3166 3166 3165 3164 3166 3168 3167 3167 3167 3167 3168 3168 3166 3165 3164 3164 3163 3162 3162 3161 3160 3159 3159 3158 3158 3158 3157 3158 3157 3155 3154 3153 3152 3150 3148 3148 3147 3145 3146 3146 3146 3144 3143 3143 3141 3137 3138 3139 3135 3134 3137 3138 3137 3136 3135 3136 3135 3134 3134 3132 3131 3130 3129
3171 3171 3171 3171 3170 3170 3170 3170 3170 3170 3170 3169 3169 3168 3168 3167 3167 3166 3166 3166 3165 3165 3164 3164 3164 3163 3162 3161 3162 3164 3164 3164 3164 3165 3165 3165 3164 3163 3162 3161 3161 3160 3159 3158 3158 3157 3156 3155 3155 3155 3156 3155 3156 3155 3152 3151 3150 3149 3148 3145 3144 3143 3142 3142 3143 3142 3142 3140 3139 3138 3130 3129 3134 3133 3133 3136 3135 3133 3131 3131 3131 3131 3131 3130 3129 3128 3127 3126
3168 3168 3168 3168 3168 3168 3167 3167 3167 3167 3167 3166 3166 3165 3165 3164 3164 3163 3163 3163 3162 3162 3161 3161 3160 3160 3158 3158 3160 3160 3161 3161 3162 3162 3162 3161 3160 3160 3160 3158 3158 3157 3155 3155 3155 3154 3153 3153 3152 3152 3154 3154 3154 3152 3149 3147 3147 3147 3145 3142 3141 3139 3138 3140 3141 3139 3138 3136 3135 3134 3125 3122 3128 3130 3131 3133 3132 3129 3126 3126 3127 3126 3126 3126 3125 3124 3122 3122
3164 3165 3165 3165 3165 3165 3164 3164 3164 3164 3164 3163 3163 3162 3162 3161 3160 3160 3160 3159 3159 3158 3158 3158 3157 3157 3154 3155 3157 3157 3157 3159 3159 3159 3158 3157 3158 3157 3156 3155 3154 3153 3153 3152 3152 3151 3150 3150 3149 3150 3151 3152 3152 3149 3145 3144 3145 3146 3141 3137 3138 3136 3134 3137 3141 3139 3135 3132 3130 3128 3120 3117 3123 3126 3128 3129 3127 3125 3122 3121 3122 3121 3121 3120 3119 3119 3117 3117
3161 3161 3161 3161 3161 3161 3161 3161 3161 3161 3160 3160 3159 3159 3158 3158 3157 3157 3156 3156 3155 3154 3155 3154 3154 3153 3150 3151 3154 3154 3155 3156 3156 3156 3155 3155 3154 3153 3152 3151 3150 3150 3149 3149 3148 3148 3147 3146 3146 3147 3148 3150 3150 3145 3141 3141 3142 3142 3138 3134 3135 3134 3132 3133 3137 3137 3134 3128 3124 3123 3117 3114 3118 3122 3124 3124 3122 3120 3117 3116 3116 3115 3115 3114 3114 3113 3113 3112
3158 3158 3158 3158 3158 3158 3158 3158 3158 3158 3157 3157 3156 3156 3155 3154 3154 3153 3153 3153 3152 3151 3151 3150 3150 3149 3146 3148 3150 3151 3152 3152 3152 3152 3152 3152 3151 3150 3149 3148 3147 3147 3146 3146 3145 3144 3143 3143 3143 3144 3146 3147 3146 3142 3139 3139 3138 3137 3136 3132 3132 3133 3131 3129 3130 3133 3131 3125 3119 3117 3112 3109 3112 3117 3119 3120 3119 3114 3111 3110 3110 3110 3109 3108 3108 3108 3107 3107
3155 3155 3155 3155 3155 3155 3155 3155 3155 3155 3154 3154 3153 3153 3152 3151 3151 3150 3150 3149 3148 3148 3146 3146 3147 3144 3142 3145 3147 3148 3149 3148 3148 3148 3148 3148 3147 3147 3146 3145 3144 3143 3143 3143 3142 3141 3140 3139 3139 3140 3142 3143 3141 3138 3135 3135 3135 3135 3134 3131 3129 3130 3129 3127 3126 3127 3128 3122 3116 3113 3107 3103 3106 3110 3112 3114 3115 3109 3105 3105 3104 3103 3104 3103 3103 3103 3102 3102
3153 3153 3153 3153 3152 3152 3152 3152 3152 3152 3152 3151 3150 3150 3149 3148 3147 3147 3146 3146 3145 3145 3143 3142 3143 3141 3139 3142 3144 3144 3145 3145 3144 3144 3145 3144 3144 3142 3142 3141 3140 3139 3139 3139 3138 3137 3137 3136 3135 3135 3137 3137 3136 3135 3133 3133 3134 3132 3131 3129 3127 3125 3123 3124 3122 3123 3125 3116 3110 3110 3103 3099 3101 3104 3106 3108 3110 3106 3100 3100 3098 3098 3099 3098 3098 3097 3096 3096
3150 3150 3150 3150 3150 3149 3149 3149 3149 3149 3149 3148 3147 3146 3145 3144 3143 3143 3142 3142 3142 3142 3140 3139 3139 3138 3138 3140 3141 3141 3141 3141 3141 3141 3141 3140 3140 3138 3137 3136 3134 3134 3135 3136 3135 3134 3134 3130 3128 3130 3132 3133 3134 3134 3132 3130 3131 3129 3127 3125 3123 3121 3117 3119 3120 3120 3122 3110 3101 3106 3100 3094 3097 3098 3100 3102 3102 3101 3098 3096 3093 3094 3094 3093 3093 3092 3090 3090
3147 3147 3147 3147 3147 3147 3146 3146 3146 3145 3145 3145 3145 3143 3142 3141 3139 3138 3137 3137 3139 3138 3136 3136 3135 3133 3135 3137 3137 3137 3136 3136 3137 3137 3137 3136 3136 3133 3132 3131 3129 3129 3131 3133 3131 3130 3129 3122 3121 3127 3129 3130 3131 3131 3129 3126 3126 3125 3124 3121 3118 3117 3111 3113 3117 3117 3119 3107 3094 3101 3095 3087 3091 3092 3094 3097 3095 3094 3094 3093 3090 3089 3090 3089 3088 3087 3085 3085
3144 3144 3144 3144 3144 3144 3143 3143 3143 3142 3142 3142 3142 3140 3139 3138 3136 3134 3131 3130 3132 3134 3132 3132 3131 3127 3131 3134 3133 3132 3131 3130 3132 3132 3133 3133 3131 3130 3128 3126 3125 3125 3127 3129 3127 3126 3120 3115 3119 3126 3127 3127 3126 3126 3125 3123 3122 3120 3120 3117 3112 3113 3109 3106 3111 3113 3114 3104 3092 3095 3088 3078 3084 3086 3087 3091 3089 3088 3089 3089 3087 3086 3085 3084 3083 3082 3081 3080
3141 3141 3141 3141 3141 3141 3140 3140 3140 3139 3139 3138 3138 3137 3136 3135 3134 3132 3128 3123 3123 3128 3129 3127 3126 3124 3127 3129 3128 3128 3125 3124 3126 3126 3129 3128 3126 3127 3124 3122 3122 3121 3122 3123 3123 3120 3113 3113 3120 3124 3123 3122 3120 3121 3122 3119 3118 3115 3115 3113 3107 3110 3109 3100 3103 3109 3108 3102 3093 3092 3080 3068 3075 3078 3079 3085 3083 3083 3085 3084 3084 3083 3080 3079 3078 3078 3076 3074
3138 3138 3138 3138 3138 3137 3137 3137 3137 3137 3136 3136 3135 3134 3133 3132 3131 3128 3126 3120 3115 3119 3124 3123 3120 3120 3122 3123 3122 3122 3119 3120 3121 3121 3124 3124 3123 3124 3121 3120 3120 3117 3118 3119 3119 3114 3110 3114 3119 3120 3118 3117 3116 3116 3118 3117 3113 3109 3109 3109 3105 3107 3108 3100 3101 3103 3101 3098 3095 3092 3074 3056 3064 3070 3070 3078 3078 3076 3079 3078 3078 3078 3076 3075 3073 3072 3072 3070
3135 3135 3135 3135 3135 3134 3134 3134 3133 3134 3133 3133 3132 3131 3130 3129 3128 3126 3123 3118 3110 3111 3117 3118 3115 3115 3116 3117 3116 3116 3115 3116 3117 3117 3119 3119 3119 3119 3118 3118 3116 3114 3115 3116 3115 3108 3107 3113 3115 3114 3113 3113 3112 3111 3114 3114 3108 3101 3102 3106 3104 3102 3103 3101 3102 3099 3094 3093 3093 3095 3079 3052 3051 3063 3064 3067 3070 3069 3071 3072 3071 3072 3071 3071 3070 3069 3069 3067
3132 3132 3132 3132 3132 3132 3132 3131 3130 3130 3130 3130 3129 3128 3128 3126 3126 3124 3122 3116 3107 3106 3110 3111 3111 3111 3111 3112 3112 3113 3113 3113 3114 3115 3115 3115 3116 3116 3115 3114 3113 3112 3112 3113 3110 3103 3103 3110 3111 3109 3109 3108 3108 3106 3108 3110 3103 3096 3097 3103 3102 3100 3100 3098 3100 3098 3092 3089 3089 3094 3091 3065 3045 3049 3057 3059 3061 3062 3065 3065 3065 3067 3067 3067 3068 3067 3066 3066
3129 3130 3129 3129 3129 3129 3129 3129 3128 3127 3127 3127 3126 3126 3125 3124 3124 3123 3121 3116 3105 3103 3106 3106 3107 3108 3109 3110 3110 3111 3111 3111 3113 3113 3113 3113 3113 3113 3112 3111 3111 3110 3110 3111 3106 3099 3102 3107 3107 3106 3105 3103 3103 3103 3104 3106 3102 3094 3094 3099 3098 3097 3097 3095 3096 3095 3090 3087 3085 3086 3093 3083 3050 3035 3047 3053 3054 3057 3058 3060 3060 3062 3063 3063 3064 3065 3064 3064
3126 3126 3126 3126 3126 3126 3126 3127 3125 3124 3124 3124 3124 3124 3123 3123 3124 3123 3124 3119 3105 3100 3104 3105 3105 3106 3107 3109 3109 3109 3109 3109 3110 3110 3110 3111 3110 3110 3109 3108 3109 3108 3108 3108 3101 3097 3102 3103 3103 3103 3102 3099 3099 3100 3101 3102 3100 3094 3093 3095 3094 3095 3094 3093 3092 3091 3090 3086 3080 3078 3086 3090 3059 3033 3042 3049 3049 3053 3053 3055 3057 3058 3060 3060 3060 3061 3061 3061
3122 3122 3122 3122 3121 3123 3124 3123 3122 3121 3121 3121 3122 3122 3121 3123 3122 3122 3125 3118 3102 3098 3103 3103 3104 3105 3105 3106 3106 3106 3106 3107 3107 3107 3108 3108 3107 3107 3106 3106 3107 3105 3105 3104 3097 3096 3101 3100 3098 3098 3098 3097 3097 3098 3098 3098 3096 3093 3094 3092 3091 3092 3089 3091 3089 3087 3091 3084 3075 3075 3082 3086 3061 3033 3041 3048 3045 3050 3050 3051 3054 3054 3057 3057 3057 3058 3057 3058
3118 3118 3118 3117 3117 3119 3120 3120 3120 3119 3119 3119 3119 3119 3120 3120 3120 3121 3120 3108 3098 3099 3101 3100 3101 3102 3102 3102 3103 3103 3104 3104 3104 3104 3105 3105 3104 3104 3104 3104 3105 3103 3102 3101 3095 3095 3098 3096 3094 3093 3093 3094 3095 3095 3094 3093 3093 3092 3093 3089 3089 3089 3086 3088 3086 3085 3090 3079 3069 3072 3076 3083 3065 3035 3038 3046 3044 3047 3047 3049 3051 3050 3053 3053 3054 3055 3054 3054
3114 3114 3114 3113 3114 3115 3116 3118 3118 3117 3117 3117 3117 3118 3118 3118 3119 3117 3108 3098 3097 3099 3098 3097 3098 3098 3099 3099 3100 3100 3101 3101 3101 3101 3101 3101 3101 3101 3102 3102 3102 3101 3099 3097 3094 3094 3094 3092 3090 3089 3090 3092 3092 3092 3091 3090 3091 3090 3090 3088 3087 3087 3084 3084 3082 3084 3087 3074 3065 3068 3071 3077 3061 3035 3037 3044 3045 3047 3046 3047 3049 3048 3050 3051 3051 3051 3051 3051
3111 3111 3110 3110 3111 3111 3112 3114 3115 3115 3115 3115 3116 3115 3115 3116 3113 3105 3098 3098 3100 3098 3095 3097 3096 3096 3097 3097 3097 3098 3098 3098 3098 3098 3098 3098 3098 3098 3100 3100 3100 3099 3096 3094 3093 3091 3088 3088 3088 3087 3087 3090 3090 3089 3087 3087 3088 3087 3086 3087 3087 3087 3085 3082 3079 3081 3080 3068 3062 3066 3069 3067 3046 3031 3038 3043 3044 3047 3044 3045 3046 3045 3048 3048 3049 3048 3047 3047
3107 3107 3107 3107 3107 3108 3109 3110 3111 3112 3112 3113 3113 3112 3113 3113 3102 3092 3094 3100 3100 3096 3095 3097 3095 3095 3095 3094 3095 3096 3095 3095 3096 3096 3095 3095 3095 3094 3096 3096 3097 3097 3093 3091 3090 3087 3083 3082 3084 3084 3084 3085 3086 3085 3084 3083 3083 3083 3082 3083 3085 3086 3083 3080 3078 3077 3072 3063 3060 3065 3067 3055 3035 3030 3037 3039 3041 3044 3042 3043 3043 3042 3044 3044 3045 3044 3044 3044
3103 3103 3103 3103 3103 3104 3105 3106 3107 3108 3109 3109 3109 3109 3110 3104 3091 3088 3092 3095 3095 3095 3095 3094 3093 3093 3092 3091 3091 3092 3092 3091 3092 3092 3091 3091 3091 3090 3091 3092 3093 3093 3091 3089 3087 3084 3081 3075 3075 3080 3081 3081 3081 3082 3082 3081 3080 3078 3077 3078 3078 3076 3075 3073 3072 3069 3063 3059 3059 3063 3059 3044 3031 3031 3033 3035 3038 3039 3039 3040 3040 3040 3041 3040 3039 3040 3040 3041
3099 3099 3098 3099 3099 3100 3101 3102 3103 3104 3105 3105 3105 3106 3101 3091 3085 3087 3089 3089 3091 3092 3092 3091 3091 3089 3086 3086 3086 3087 3088 3087 3087 3088 3086 3086 3086 3085 3086 3087 3088 3089 3089 3087 3084 3082 3080 3072 3070 3074 3076 3076 3076 3077 3079 3078 3076 3074 3074 3074 3071 3068 3068 3067 3064 3061 3060 3059 3057 3055 3046 3035 3031 3030 3031 3034 3035 3035 3037 3037 3037 3038 3037 3037 3036 3036 3038 3038
3094 3093 3093 3094 3094 3096 3097 3097 3098 3099 3100 3101 3101 3097 3089 3083 3084 3086 3085 3086 3087 3087 3088 3088 3087 3085 3082 3081 3081 3082 3083 3082 3083 3083 3082 3081 3081 3081 3081 3081 3083 3084 3083 3083 3081 3080 3076 3069 3069 3071 3070 3071 3072 3072 3073 3073 3071 3070 3069 3067 3065 3066 3066 3064 3060 3059 3061 3058 3052 3047 3037 3031 3032 3027 3026 3031 3031 3032 3035 3034 3034 3035 3034 3034 3034 3034 3036 3036
3088 3088 3088 3088 3090 3092 3092 3092 3093 3094 3095 3095 3093 3085 3079 3078 3081 3082 3083 3084 3083 3084 3085 3084 3082 3081 3079 3078 3077 3078 3078 3078 3079 3078 3078 3077 3076 3075 3076 3077 3079 3079 3079 3080 3077 3077 3074 3067 3068 3069 3066 3067 3068 3067 3067 3068 3066 3065 3064 3063 3063 3064 3063 3062 3060 3058 3059 3053 3046 3042 3035 3032 3034 3026 3020 3026 3028 3029 3031 3031 3032 3032 3031 3032 3031 3032 3033 3031
3082 3082 3082 3083 3085 3086 3086 3087 3088 3089 3089 3088 3083 3076 3074 3074 3075 3077 3080 3081 3080 3081 3080 3079 3077 3077 3076 3075 3074 3074 3075 3074 3075 3075 3074 3074 3071 3070 3071 3073 3074 3074 3075 3076 3072 3071 3071 3065 3064 3066 3063 3062 3063 3063 3061 3061 3062 3061 3060 3061 3061 3059 3057 3058 3057 3054 3054 3048 3040 3038 3034 3031 3032 3024 3018 3023 3025 3026 3027 3028 3029 3029 3029 3029 3029 3029 3028 3027
3077 3076 3075 3077 3080 3080 3081 3081 3082 3084 3083 3079 3074 3070 3068 3068 3069 3072 3075 3076 3077 3077 3075 3074 3074 3073 3072 3071 3070 3071 3072 3070 3071 3071 3070 3070 3068 3066 3067 3068 3069 3068 3069 3070 3067 3065 3066 3063 3060 3061 3059 3056 3058 3058 3056 3056 3058 3058 3057 3057 3056 3055 3053 3052 3050 3048 3046 3042 3036 3034 3031 3027 3028 3024 3020 3021 3022 3022 3023 3024 3025 3026 3026 3027 3026 3026 3025 3024
3071 3070 3069 3072 3074 3074 3076 3076 3076 3077 3074 3070 3067 3065 3063 3064 3066 3068 3070 3071 3072 3072 3070 3070 3070 3069 3067 3067 3067 3067 3067 3066 3067 3067 3066 3065 3064 3063 3064 3065 3064 3065 3064 3064 3063 3061 3061 3059 3055 3055 3055 3052 3051 3052 3051 3052 3054 3054 3053 3054 3053 3051 3050 3047 3043 3042 3042 3037 3033 3031 3025 3022 3025 3025 3021 3019 3018 3017 3018 3020 3022 3024 3025 3025 3024 3023 3023 3023
3066 3064 3064 3067 3069 3069 3071 3070 3069 3069 3065 3063 3063 3061 3061 3062 3062 3063 3064 3065 3066 3066 3066 3066 3066 3065 3063 3063 3062 3062 3062 3061 3061 3062 3060 3060 3060 3060 3061 3062 3062 3062 3061 3059 3059 3058 3057 3055 3051 3050 3050 3047 3046 3048 3049 3049 3050 3050 3049 3049 3049 3048 3047 3044 3038 3036 3036 3030 3027 3026 3018 3016 3023 3024 3018 3016 3014 3013 3015 3017 3017 3020 3022 3024 3024 3022 3022 3022
3060 3059 3060 3063 3063 3064 3065 3063 3062 3062 3059 3057 3058 3058 3059 3059 3058 3058 3059 3060 3060 3060 3061 3061 3060 3059 3058 3058 3058 3058 3058 3056 3055 3056 3054 3053 3055 3055 3057 3059 3060 3059 3057 3055 3055 3055 3054 3051 3047 3044 3043 3042 3042 3046 3047 3045 3045 3046 3044 3044 3045 3044 3042 3039 3031 3030 3030 3024 3022 3022 3013 3009 3018 3021 3015 3013 3012 3011 3013 3013 3012 3014 3017 3019 3020 3020 3020 3019
3055 3055 3057 3058 3057 3059 3060 3058 3057 3056 3053 3052 3054 3055 3055 3055 3054 3055 3055 3054 3054 3055 3055 3054 3054 3054 3054 3054 3054 3054 3054 3051 3049 3050 3049 3048 3049 3050 3053 3055 3056 3055 3054 3051 3050 3050 3049 3046 3042 3038 3036 3036 3037 3039 3040 3039 3039 3037 3035 3037 3036 3034 3033 3030 3026 3026 3025 3020 3021 3018 3008 3004 3011 3015 3013 3011 3010 3009 3008 3008 3008 3008 3009 3011 3012 3014 3014 3013
3051 3051 3052 3053 3053 3054 3053 3051 3051 3050 3049 3050 3050 3050 3050 3050 3050 3050 3050 3049 3049 3050 3049 3049 3050 3050 3049 3050 3050 3049 3050 3047 3043 3043 3045 3043 3043 3045 3048 3051 3051 3050 3050 3048 3047 3046 3043 3040 3039 3036 3034 3032 3031 3032 3031 3031 3030 3027 3026 3029 3027 3026 3028 3026 3024 3024 3018 3015 3019 3012 3001 3000 3007 3010 3010 3009 3006 3004 3003 3003 3004 3003 3003 3003 3004 3005 3005 3004
3047 3047 3048 3048 3047 3047 3046 3046 3047 3046 3046 3047 3046 3045 3046 3045 3044 3046 3045 3045 3045 3046 3045 3044 3045 3046 3045 3046 3045 3043 3044 3044 3040 3039 3040 3038 3038 3040 3042 3044 3044 3044 3044 3044 3043 3041 3037 3035 3036 3034 3031 3029 3025 3024 3025 3025 3024 3021 3021 3023 3022 3022 3024 3021 3020 3018 3011 3009 3010 3003 2994 2996 3002 3005 3006 3006 3002 2999 2997 2997 2997 2998 2998 2998 2998 2997 2997 2996
3042 3042 3043 3043 3042 3041 3040 3042 3043 3041 3041 3042 3040 3041 3041 3039 3039 3042 3041 3040 3040 3041 3040 3040 3041 3042 3040 3040 3040 3038 3038 3039 3037 3036 3035 3035 3035 3036 3036 3037 3037 3037 3038 3038 3038 3035 3031 3029 3029 3028 3024 3022 3019 3018 3021 3023 3021 3019 3018 3018 3018 3019 3019 3018 3014 3008 3006 3003 2998 2995 2994 2992 2996 3001 3002 3000 2998 2995 2993 2992 2991 2993 2995 2994 2992 2990 2988 2988
3038 3037 3038 3038 3037 3037 3036 3037 3038 3036 3037 3037 3035 3035 3036 3035 3036 3037 3035 3034 3035 3036 3036 3035 3036 3036 3035 3035 3035 3033 3033 3034 3033 3031 3031 3031 3031 3031 3031 3031 3031 3031 3032 3032 3032 3031 3026 3022 3023 3022 3018 3018 3017 3016 3018 3019 3015 3014 3014 3013 3013 3014 3013 3013 3007 3001 3004 2999 2986 2989 2995 2989 2989 2997 2996 2994 2994 2992 2992 2991 2989 2987 2986 2983 2981 2981 2980 2979
3033 3033 3034 3034 3032 3032 3032 3032 3032 3031 3032 3033 3031 3031 3032 3031 3031 3031 3031 3030 3030 3031 3031 3029 3030 3031 3030 3031 3031 3029 3028 3029 3028 3027 3027 3026 3026 3025 3025 3026 3025 3025 3026 3026 3025 3025 3021 3016 3017 3017 3014 3014 3015 3013 3013 3012 3009 3008 3008 3006 3006 3007 3006 3004 2999 2997 3001 2992 2981 2986 2991 2984 2984 2991 2991 2990 2990 2988 2988 2987 2983 2980 2976 2973 2971 2971 2970 2968
3029 3028 3029 3028 3027 3028 3028 3028 3028 3028 3028 3028 3027 3026 3027 3026 3026 3027 3028 3027 3026 3026 3026 3025 3025 3026 3026 3026 3026 3024 3024 3024 3023 3022 3022 3021 3021 3020 3019 3020 3020 3020 3020 3020 3020 3020 3017 3012 3012 3012 3008 3009 3011 3009 3009 3007 3003 3002 3002 3001 3001 3000 2999 2996 2993 2993 2993 2986 2981 2983 2982 2979 2982 2983 2983 2984 2983 2982 2981 2979 2975 2972 2970 2967 2966 2964 2963 2960
3023 3023 3023 3023 3022 3023 3024 3023 3024 3023 3023 3025 3023 3021 3022 3022 3022 3023 3024 3023 3022 3021 3022 3021 3020 3020 3021 3021 3021 3019 3019 3019 3018 3017 3017 3016 3016 3016 3015 3015 3016 3015 3016 3016 3015 3016 3013 3009 3008 3008 3004 3003 3005 3005 3003 3003 3000 2997 2996 2996 2996 2993 2991 2990 2989 2989 2986 2979 2977 2977 2974 2974 2976 2974 2974 2974 2974 2973 2973 2971 2969 2966 2963 2961 2960 2959 2958 2956
3018 3017 3018 3018 3017 3019 3019 3018 3019 3018 3017 3019 3018 3017 3019 3018 3018 3019 3019 3018 3018 3018 3019 3018 3016 3015 3015 3016 3016 3014 3014 3014 3013 3012 3012 3011 3011 3011 3011 3011 3012 3011 3010 3011 3010 3010 3009 3005 3004 3005 3000 2996 2999 3000 2997 2997 2995 2992 2990 2990 2988 2986 2985 2984 2983 2983 2979 2974 2972 2972 2969 2967 2965 2964 2967 2967 2966 2966 2965 2963 2963 2960 2957 2956 2955 2953 2952 2950
3014 3012 3013 3012 3011 3013 3014 3012 3014 3013 3011 3013 3013 3012 3014 3013 3013 3014 3014 3013 3013 3013 3013 3013 3012 3011 3010 3011 3011 3010 3009 3009 3007 3006 3007 3005 3005 3006 3005 3005 3006 3005 3004 3005 3004 3003 3004 3001 3001 3002 2995 2990 2994 2994 2992 2994 2989 2983 2983 2984 2982 2981 2980 2977 2976 2975 2973 2970 2967 2965 2963 2961 2957 2957 2960 2961 2960 2959 2958 2956 2956 2954 2952 2951 2949 2948 2946 2944